Home   Weather   Tórshavn   Past weeks
Flag for Faroe Islands

Past Weather in Tórshavn, Faroe Islands — Yesterday and Last 2 Weeks

Now
46 °F

Passing clouds.


Feels Like: 40 °F
Forecast: N/A
Wind: 15 mph from East

Location: Soervaag / Vagar

Current Time: Nov 22, 2019 at 5:55:22 pm

Latest Report: Nov 22, 2019 at 5:20 pm


Visibility: N/A

Pressure: 29.71 "Hg

Humidity: 76%

Dew Point: 39 °F

Location of TórshavnLocation

Past Weather in Tórshavn — Graph

°F

Tórshavn Temperature Yesterday

Maximum temperature yesterday: 46 °F (at 1:20 am)
Minimum temperature yesterday: 45 °F (at 12:20 am)
Average temperature yesterday: 46 °F

High & Low Weather Summary for the Past Weeks

 TemperatureHumidityPressure
High46 °F (Nov 20, 11:20 pm)100% (Nov 16, 6:50 pm)30.21 "Hg (Nov 16, 6:50 pm)
Low27 °F (Nov 8, 8:50 am)48% (Nov 11, 12:50 pm)29.50 "Hg (Nov 13, 3:50 am)
Average37 °F80%29.85 "Hg
* Reported Nov 7 4:20 pm — Nov 22 4:50 pm, Tórshavn. Weather by CustomWeather, © 2019

Note: Actual official high and low records may vary slightly from our data, if they occured in-between our weather recording intervals... More about our weather records

Advertising

Tórshavn Weather History for the Previous 24 Hours

Scroll right to see more
 ConditionsComfort  
Time TempWeatherWind HumidityBarometerVisibility
4:50 pm
Fri, Nov 22
46 °FPassing clouds.12 mph76%29.71 "HgN/A
4:20 pm46 °FPassing clouds.9 mph76%29.71 "HgN/A
3:50 pm45 °FPassing clouds.9 mph76%29.71 "HgN/A
3:20 pm45 °FPassing clouds.10 mph76%29.71 "HgN/A
2:50 pm46 °FScattered clouds.12 mph71%29.74 "HgN/A
2:20 pm46 °FPassing clouds.15 mph71%29.74 "HgN/A
1:50 pm46 °FCool.14 mph71%29.74 "HgN/A
1:20 pm46 °FScattered clouds.12 mph71%29.74 "HgN/A
12:50 pm46 °FPartly sunny.9 mph76%29.74 "HgN/A
12:20 pm46 °FPartly sunny.15 mph76%29.77 "HgN/A
11:50 am46 °FPartly sunny.16 mph76%29.77 "HgN/A
11:20 am45 °FPartly sunny.16 mph81%29.77 "HgN/A
10:50 am45 °FPassing clouds.14 mph81%29.77 "HgN/A
10:20 am45 °FPassing clouds.12 mph81%29.77 "HgN/A
9:50 am45 °FScattered clouds.14 mph81%29.77 "HgN/A
9:20 am45 °FScattered clouds.13 mph81%29.77 "HgN/A
8:50 am45 °FPassing clouds.15 mph81%29.77 "HgN/A
8:20 am45 °FPassing clouds.15 mph87%29.77 "HgN/A
7:50 am45 °FOvercast.13 mph87%29.77 "HgN/A
7:20 am45 °FPassing clouds.13 mph87%29.77 "HgN/A
6:50 am45 °FPassing clouds.12 mph87%29.77 "HgN/A
6:20 am45 °FPassing clouds.15 mph81%29.77 "HgN/A
5:50 am45 °FPassing clouds.18 mph87%29.77 "HgN/A
5:20 am45 °FMostly cloudy.16 mph87%29.77 "HgN/A
4:50 am45 °FPartly cloudy.17 mph87%29.77 "HgN/A
4:20 am45 °FPassing clouds.20 mph93%29.77 "HgN/A
3:50 am45 °FPassing clouds.18 mph93%29.80 "HgN/A
3:20 am45 °FPassing clouds.17 mph93%29.80 "HgN/A
2:50 am45 °FLight rain. Passing clouds.17 mph93%29.80 "HgN/A
2:20 am45 °FPassing clouds.20 mph93%29.80 "HgN/A
1:50 am45 °FLight rain. Passing clouds.18 mph100%29.80 "Hg4 mi
1:20 am45 °FPartly cloudy.17 mph100%29.80 "HgN/A
12:50 am45 °FPassing clouds.17 mph93%29.80 "HgN/A
12:20 am45 °FPassing clouds.18 mph93%29.80 "HgN/A
11:50 pm
Thu, Nov 21
45 °FLight rain. Passing clouds.17 mph93%29.80 "HgN/A
11:20 pm45 °FLight rain. Overcast.21 mph93%29.80 "Hg6 mi
10:50 pm45 °FLight rain. Passing clouds.17 mph93%29.80 "HgN/A
10:20 pm45 °FPassing clouds.17 mph93%29.80 "HgN/A
9:50 pm45 °FPassing clouds.22 mph93%29.80 "HgN/A
9:20 pm45 °FPassing clouds.22 mph93%29.80 "HgN/A
8:50 pm45 °FPassing clouds.18 mph93%29.80 "HgN/A
8:20 pm46 °FPartly cloudy.23 mph82%29.80 "HgN/A
7:50 pm46 °FPartly cloudy.22 mph82%29.80 "HgN/A
7:20 pm45 °FLight rain. Passing clouds.24 mph93%29.80 "HgN/A
6:50 pm45 °FLight rain. Passing clouds.25 mph93%29.80 "HgN/A
5:50 pm45 °FPassing clouds.21 mph93%29.80 "HgN/A
5:20 pm46 °FPassing clouds.20 mph82%29.80 "HgN/A
Weather by CustomWeather, © 2019

See weather overview